When you browse on this site, cookies collect data to enhance your experience and personalize the content and advertising you see.
Visit our Privacy Policy to learn more. By continuing to use the site, you agree to this use of cookies and data.

Hourly Weather Sumy

Today, 3 July, Friday

Time Temperature Precipitation Wind Pressure Humidity
00:00 +21°C° 0 mm 1 mps 748 mmHg 83%
01:00 +21°C° 0 mm 1 mps 748 mmHg 83%
02:00 +20°C° 0 mm 1 mps 749 mmHg 79%
03:00 +21°C° 0 mm 1 mps 749 mmHg 80%
04:00 +21°C° 0 mm 1 mps 748 mmHg 80%
05:00 +21°C° 0 mm 1 mps 748 mmHg 81%
06:00 +22°C° 0 mm 1 mps 749 mmHg 76%
07:00 +24°C° 0 mm 2 mps 749 mmHg 72%
08:00 +26°C° 0 mm 2 mps 749 mmHg 68%
09:00 +27°C° 0 mm 2 mps 749 mmHg 65%
10:00 +28°C° 0 mm 2 mps 749 mmHg 62%
11:00 +29°C° 0 mm 3 mps 749 mmHg 59%
12:00 +29°C° 0 mm 3 mps 749 mmHg 57%
13:00 +30°C° 0 mm 2 mps 749 mmHg 56%
14:00 +30°C° 0 mm 2 mps 748 mmHg 54%
15:00 +30°C° 0 mm 2 mps 748 mmHg 57%
16:00 +30°C° 0 mm 2 mps 748 mmHg 59%
17:00 +30°C° 0 mm 1 mps 747 mmHg 62%
18:00 +28°C° 0 mm 1 mps 747 mmHg 65%
19:00 +26°C° 0 mm 1 mps 748 mmHg 69%
20:00 +24°C° 0 mm 1 mps 748 mmHg 72%
21:00 +24°C° 0 mm 1 mps 748 mmHg 73%
22:00 +23°C° 0 mm 1 mps 748 mmHg 75%
23:00 +23°C° 0 mm 1 mps 748 mmHg 76%

Tomorrow, 4 July, Saturday

Time Temperature Precipitation Wind Pressure Humidity
00:00 +22°C° 0 mm 1 mps 748 mmHg 79%
01:00 +22°C° 0 mm 1 mps 748 mmHg 82%
02:00 +22°C° 0 mm 1 mps 748 mmHg 85%
03:00 +22°C° 0 mm 1 mps 748 mmHg 86%
04:00 +22°C° 0 mm 1 mps 748 mmHg 88%
05:00 +22°C° 0 mm 1 mps 748 mmHg 89%
06:00 +24°C° 0 mm 1 mps 748 mmHg 84%
07:00 +25°C° 0 mm 1 mps 748 mmHg 78%
08:00 +27°C° 0 mm 1 mps 748 mmHg 73%
09:00 +28°C° 0.3 mm 1 mps 748 mmHg 67%
10:00 +29°C° 0.3 mm 1 mps 748 mmHg 60%
11:00 +31°C° 0.3 mm 1 mps 748 mmHg 54%
12:00 +31°C° 0 mm 2 mps 748 mmHg 54%
13:00 +31°C° 0 mm 2 mps 748 mmHg 54%
14:00 +31°C° 0 mm 3 mps 748 mmHg 54%
15:00 +30°C° 0 mm 3 mps 748 mmHg 59%
16:00 +30°C° 0 mm 2 mps 748 mmHg 65%
17:00 +29°C° 0 mm 2 mps 747 mmHg 70%
18:00 +27°C° 0.2 mm 2 mps 747 mmHg 75%
19:00 +26°C° 0.2 mm 3 mps 747 mmHg 81%
20:00 +24°C° 0.2 mm 3 mps 747 mmHg 86%
21:00 +23°C° 0.2 mm 2 mps 747 mmHg 88%
22:00 +23°C° 0.2 mm 2 mps 747 mmHg 89%
23:00 +21°C° 0.2 mm 2 mps 747 mmHg 90%

Day after tomorrow, 5 July, Sunday

Time Temperature Precipitation Wind Pressure Humidity
00:00 +21°C° 0.7 mm 2 mps 747 mmHg 91%
01:00 +21°C° 0.7 mm 2 mps 747 mmHg 92%
02:00 +21°C° 0.7 mm 2 mps 747 mmHg 92%
03:00 +21°C° 0.3 mm 2 mps 747 mmHg 93%
04:00 +21°C° 0.3 mm 2 mps 747 mmHg 93%
05:00 +21°C° 0.3 mm 2 mps 747 mmHg 93%
06:00 +23°C° 0.2 mm 2 mps 747 mmHg 90%
07:00 +24°C° 0.2 mm 2 mps 747 mmHg 87%
08:00 +25°C° 0.2 mm 2 mps 747 mmHg 83%
09:00 +26°C° 0.1 mm 2 mps 747 mmHg 81%
10:00 +26°C° 0.1 mm 2 mps 747 mmHg 78%
11:00 +27°C° 0.1 mm 2 mps 747 mmHg 75%
12:00 +27°C° 0.2 mm 3 mps 747 mmHg 75%
13:00 +27°C° 0.2 mm 3 mps 746 mmHg 75%
14:00 +28°C° 0.2 mm 3 mps 746 mmHg 75%
15:00 +27°C° 0.6 mm 3 mps 746 mmHg 78%
16:00 +26°C° 0.6 mm 4 mps 746 mmHg 80%
17:00 +26°C° 0.6 mm 4 mps 746 mmHg 83%
18:00 +24°C° 0 mm 3 mps 746 mmHg 86%
19:00 +22°C° 0 mm 3 mps 746 mmHg 90%
20:00 +21°C° 0 mm 3 mps 746 mmHg 93%
21:00 +20°C° 0 mm 3 mps 746 mmHg 94%
22:00 +20°C° 0 mm 3 mps 747 mmHg 95%
23:00 +19°C° 0 mm 3 mps 747 mmHg 96%

6 July, Monday

Time Temperature Precipitation Wind Pressure Humidity
00:00 +18°C° 0 mm 3 mps 747 mmHg 96%
01:00 +18°C° 0 mm 2 mps 747 mmHg 96%
02:00 +17°C° 0 mm 2 mps 747 mmHg 96%
03:00 +18°C° 0 mm 2 mps 747 mmHg 96%
04:00 +18°C° 0 mm 2 mps 747 mmHg 95%
05:00 +18°C° 0 mm 2 mps 747 mmHg 94%
06:00 +19°C° 0 mm 2 mps 747 mmHg 88%
07:00 +21°C° 0 mm 2 mps 747 mmHg 82%
08:00 +24°C° 0 mm 2 mps 747 mmHg 76%
09:00 +25°C° 0 mm 2 mps 747 mmHg 72%
10:00 +26°C° 0 mm 2 mps 747 mmHg 67%
11:00 +27°C° 0 mm 2 mps 747 mmHg 62%
12:00 +28°C° 0 mm 2 mps 747 mmHg 60%
13:00 +28°C° 0 mm 2 mps 747 mmHg 58%
14:00 +29°C° 0 mm 2 mps 746 mmHg 56%
15:00 +29°C° 0 mm 2 mps 746 mmHg 59%
16:00 +29°C° 0 mm 2 mps 746 mmHg 61%
17:00 +28°C° 0 mm 2 mps 746 mmHg 64%
18:00 +27°C° 0 mm 2 mps 746 mmHg 69%
19:00 +25°C° 0 mm 1 mps 746 mmHg 74%
20:00 +23°C° 0 mm 1 mps 746 mmHg 79%
21:00 +23°C° 0 mm 1 mps 745 mmHg 81%
22:00 +22°C° 0 mm 1 mps 745 mmHg 84%
23:00 +21°C° 0 mm 2 mps 745 mmHg 86%

7 July, Tuesday

Time Temperature Precipitation Wind Pressure Humidity
00:00 +21°C° 0 mm 1 mps 745 mmHg 88%
01:00 +21°C° 0 mm 1 mps 745 mmHg 90%
02:00 +21°C° 0 mm 1 mps 745 mmHg 92%
03:00 +21°C° 0.1 mm 1 mps 745 mmHg 92%
04:00 +21°C° 0.1 mm 1 mps 745 mmHg 92%
05:00 +20°C° 0.1 mm 2 mps 745 mmHg 92%
06:00 +23°C° 0 mm 2 mps 745 mmHg 87%
07:00 +25°C° 0 mm 2 mps 745 mmHg 82%
08:00 +27°C° 0 mm 2 mps 744 mmHg 77%
09:00 +28°C° 0 mm 2 mps 744 mmHg 72%
10:00 +29°C° 0 mm 2 mps 744 mmHg 67%
11:00 +31°C° 0 mm 2 mps 744 mmHg 62%
12:00 +31°C° 0 mm 2 mps 744 mmHg 60%
13:00 +32°C° 0 mm 2 mps 743 mmHg 58%
14:00 +32°C° 0 mm 2 mps 743 mmHg 57%
15:00 +32°C° 0.3 mm 2 mps 743 mmHg 61%
16:00 +31°C° 0.3 mm 2 mps 743 mmHg 66%
17:00 +30°C° 0.3 mm 2 mps 742 mmHg 71%
18:00 +29°C° 0.2 mm 2 mps 742 mmHg 76%
19:00 +27°C° 0.2 mm 3 mps 743 mmHg 81%
20:00 +25°C° 0.2 mm 3 mps 743 mmHg 86%
21:00 +23°C° 0.4 mm 4 mps 743 mmHg 88%
22:00 +22°C° 0.4 mm 4 mps 743 mmHg 90%
23:00 +21°C° 0.4 mm 4 mps 743 mmHg 93%

8 July, Wednesday

Time Temperature Precipitation Wind Pressure Humidity
00:00 +20°C° 0.1 mm 5 mps 743 mmHg 94%
01:00 +20°C° 0.1 mm 5 mps 743 mmHg 95%
02:00 +19°C° 0.1 mm 5 mps 743 mmHg 96%
03:00 +19°C° 0 mm 5 mps 743 mmHg 96%
04:00 +19°C° 0 mm 5 mps 744 mmHg 95%
05:00 +17°C° 0 mm 5 mps 744 mmHg 94%
06:00 +19°C° 0 mm 5 mps 744 mmHg 92%
07:00 +19°C° 0 mm 5 mps 744 mmHg 90%
08:00 +19°C° 0 mm 5 mps 745 mmHg 88%
09:00 +20°C° 0 mm 5 mps 745 mmHg 84%
10:00 +21°C° 0 mm 5 mps 745 mmHg 81%
11:00 +22°C° 0 mm 5 mps 746 mmHg 78%
12:00 +23°C° 0 mm 5 mps 746 mmHg 76%
13:00 +23°C° 0 mm 5 mps 746 mmHg 74%
14:00 +25°C° 0 mm 5 mps 746 mmHg 72%
15:00 +23°C° 0 mm 5 mps 746 mmHg 73%
16:00 +23°C° 0 mm 4 mps 746 mmHg 74%
17:00 +23°C° 0 mm 4 mps 746 mmHg 75%
18:00 +21°C° 0 mm 4 mps 746 mmHg 79%
19:00 +20°C° 0 mm 3 mps 746 mmHg 83%
20:00 +19°C° 0 mm 3 mps 746 mmHg 87%
21:00 +18°C° 0 mm 4 mps 746 mmHg 87%
22:00 +17°C° 0 mm 4 mps 746 mmHg 86%
23:00 +17°C° 0 mm 4 mps 746 mmHg 86%
Show more